Location: Hiram
(41.3130°N, 81.1440°W)
Time: 18:40:28
(UTC-04:00)

Amateur Radio Satellites - All Passes

Search period start: 30 July 2016 18:10
Search period end: 31 July 2016 18:10
Location: Hiram, 41.3130°N, 81.1440°W

Satellite Date Start Highest point End Downlink Frequencies (MHz)
Time Altitude Azimuth
Cosmos 2499 30 Jul 18:10:40 18:17:18 23° 295° (WNW) 18:23:48 435.465 / 435.565
GONETS M04 30 Jul 18:13:22 18:18:43 17° 300° (WNW) 18:24:07
Cubesat XI-IV 30 Jul 18:16:13 18:21:12 41° 69° (ENE) 18:26:13 437.490
HORYU 2 30 Jul 18:19:28 18:23:24 30° 263° (W) 18:27:22 437.375
BEESAT 2 30 Jul 18:20:39 18:24:16 36° 116° (ESE) 18:27:56 435.950
STARS 30 Jul 18:25:29 18:29:42 43° 289° (WNW) 18:33:54 437.465
PHONESAT 2.4 30 Jul 18:30:02 18:33:06 78° 180° (S) 18:36:12 2401.200-2431.200
CUTE-I 30 Jul 18:38:15 18:43:33 65° 73° (ENE) 18:48:53 437.470
AO-7 30 Jul 18:40:37 18:41:08 10° 275° (W) 18:41:39 29.400- 29.500
BRITE-PL 30 Jul 18:43:22 18:47:28 68° 259° (W) 18:51:41 437.365/2234.400
NOAA 15 30 Jul 18:45:51 18:51:06 82° 259° (W) 18:56:23 137.62
CUBESAT XI-V 30 Jul 18:51:53 18:56:32 87° 281° (W) 19:01:09 437.345
DOVE 4 30 Jul 18:59:19 19:03:14 33° 69° (ENE) 19:07:23 437.250
MOZHAYETS 4 30 Jul 19:02:46 19:03:17 10° 300° (WNW) 19:03:47
RS-15 30 Jul 19:14:56 19:19:37 13° 267° (W) 19:24:17 29.354- 29.394
PCSat 30 Jul 19:21:22 19:26:46 78° 117° (ESE) 19:32:13 145.827
GOMX 1 30 Jul 19:25:43 19:29:49 55° 261° (W) 19:34:10 467.674
LilacSat-2 30 Jul 19:32:38 19:36:04 30° 264° (W) 19:39:32 437.200
ISS 30 Jul 19:35:46 19:37:26 13° 130° (SE) 19:39:08 145.825
SEEDS 30 Jul 19:41:35 19:44:00 15° 65° (ENE) 19:46:25 437.485
BEESAT 3 30 Jul 19:45:37 19:48:20 18° 316° (NW) 19:51:04 437.485
COMPASS 1 30 Jul 19:47:00 19:48:32 12° 63° (ENE) 19:50:04 437.405
NOAA 18 30 Jul 19:47:45 19:52:39 32° 263° (W) 19:57:35 137.9125
HO-68 30 Jul 19:51:41 19:58:30 49° 66° (ENE) 20:05:22 435.675
Cubesat XI-IV 30 Jul 19:56:57 20:01:23 26° 265° (W) 20:05:51 437.490
BEESAT 2 30 Jul 19:59:03 20:02:12 22° 314° (NW) 20:05:22 435.950
O/OREOS (USA 219) 30 Jul 19:59:43 20:03:31 28° 103° (ESE) 20:07:19 437.305
PHONESAT 2.4 30 Jul 20:06:32 20:09:29 44° 197° (SSW) 20:12:26 2401.200-2431.200
AAUSAT CUBESAT 2 30 Jul 20:10:07 20:12:46 17° 66° (ENE) 20:15:26 437.432
YUBILEINY 30 Jul 20:17:16 20:25:12 35° 70° (ENE) 20:33:03 435.215
STRAND 1 30 Jul 20:17:18 20:22:08 41° 98° (E) 20:26:54 437.568
CINEMA 3 30 Jul 20:19:00 20:23:33 69° 75° (ENE) 20:28:21 145.822/145.860
CUTE-I 30 Jul 20:20:48 20:24:02 16° 269° (W) 20:27:18 437.470
ZACube-1 30 Jul 20:24:30 20:25:51 11° 61° (ENE) 20:27:11 437.345
CANX-2 30 Jul 20:30:28 20:34:45 84° 76° (ENE) 20:39:02 2200.000
UWE-3 30 Jul 20:30:37 20:33:57 20° 65° (ENE) 20:37:20 435.000/436.395/437.385
DOVE 4 30 Jul 20:37:38 20:41:03 22° 268° (W) 20:44:36 437.250
CUTE 1.7 + AOD 2 30 Jul 20:43:07 20:47:23 81° 259° (WSW) 20:51:40 437.475
AIST 2 30 Jul 20:53:44 20:57:48 75° 122° (ESE) 21:01:57 435.215
Oscar 11 30 Jul 20:56:03 20:59:26 23° 67° (ENE) 21:02:50 145.826/435.025
CUBEBUG 2 30 Jul 20:59:39 21:04:11 56° 73° (ENE) 21:08:49 437.445
PCSat 30 Jul 21:07:01 21:10:48 19° 317° (NW) 21:14:36 145.827
ISS 30 Jul 21:10:15 21:13:30 68° 327° (NNW) 21:16:44 145.825
M-CUBED/EXP-1 PRIME 30 Jul 21:12:04 21:14:15 14° 56° (ENE) 21:16:31 437.505
SEEDS 30 Jul 21:15:13 21:19:18 48° 261° (W) 21:23:24 437.485
COMPASS 1 30 Jul 21:19:26 21:23:33 63° 259° (WSW) 21:27:42 437.405
Cosmos 2504 30 Jul 21:27:23 21:34:19 31° 69° (ENE) 21:40:49 435.465 / 435.565
AUBIESAT-1 30 Jul 21:33:47 21:36:43 20° 60° (ENE) 21:39:48 437.475
DELFI C3 30 Jul 21:33:57 21:37:05 23° 69° (ENE) 21:40:15 145.870
PRISM 30 Jul 21:37:41 21:41:25 33° 98° (E) 21:45:09 437.425
O/OREOS (USA 219) 30 Jul 21:39:00 21:42:50 28° 301° (WNW) 21:46:43 437.305
HO-68 30 Jul 21:40:04 21:46:23 33° 264° (W) 21:52:45 435.675
Cosmos 2491 30 Jul 21:41:12 21:49:38 58° 91° (E) 21:58:05 435.465 / 435.565
AAUSAT CUBESAT 2 30 Jul 21:44:00 21:47:56 41° 262° (W) 21:51:52 437.432
PHONESAT 2.4 30 Jul 21:44:13 21:45:31 12° 212° (SSW) 21:46:47 2401.200-2431.200
AO-85 30 Jul 21:51:54 21:55:57 33° 49° (NE) 21:59:41 145.980
FUNcube-1 30 Jul 21:53:40 21:58:13 87° 78° (ENE) 22:02:50 145.935
ZACube-1 30 Jul 21:56:52 22:01:25 82° 257° (WSW) 22:06:03 437.345
STRAND 1 30 Jul 21:56:59 22:01:03 25° 295° (WNW) 22:05:06 437.568
CINEMA 3 30 Jul 21:59:27 22:01:14 12° 272° (W) 22:03:03 145.822/145.860
UWE-3 30 Jul 22:05:41 22:10:04 43° 262° (W) 22:14:33 435.000/436.395/437.385
YUBILEINY 30 Jul 22:13:49 22:22:15 52° 271° (W) 22:30:38 435.215
Oscar 11 30 Jul 22:31:29 22:35:23 32° 263° (W) 22:39:19 145.826/435.025
AIST 2 30 Jul 22:34:31 22:36:48 14° 319° (NW) 22:39:06 435.215
HUMSAT D 30 Jul 22:36:30 22:40:44 59° 74° (ENE) 22:44:58 437.325/437.525
CUBEBUG 2 30 Jul 22:38:29 22:41:10 15° 270° (W) 22:43:52 437.445
M-CUBED/EXP-1 PRIME 30 Jul 22:44:27 22:48:14 54° 255° (WSW) 22:52:22 437.505
ESTCUBE 1 30 Jul 22:44:29 22:46:46 14° 63° (ENE) 22:49:02 437.505/2401.250
ISS 30 Jul 22:48:05 22:50:24 18° 345° (NNW) 22:52:42 145.825
ANTELSAT 30 Jul 22:59:14 23:02:59 24° 94° (E) 23:06:39 437.575/2403.000
AUBIESAT-1 30 Jul 23:07:15 23:10:53 36° 258° (WSW) 23:14:47 437.475
DELFI C3 30 Jul 23:08:29 23:11:50 26° 264° (W) 23:15:11 145.870
PRISM 30 Jul 23:13:30 23:16:30 20° 294° (WNW) 23:19:31 437.425
DX 1 30 Jul 23:15:08 23:16:47 12° 61° (ENE) 23:18:27 434.975-435.025
Cosmos 2504 30 Jul 23:20:22 23:28:04 52° 270° (W) 23:35:15 435.465 / 435.565
UKube-1 30 Jul 23:21:34 23:22:43 11° 61° (ENE) 23:23:51 .
50 SAT 30 Jul 23:25:07 23:27:34 17° 67° (ENE) 23:30:02 437.505
AISAT 30 Jul 23:27:46 23:31:15 23° 67° (ENE) 23:34:43 437.250
AO-85 30 Jul 23:32:45 23:36:11 24° 249° (WSW) 23:39:25 145.980
TIGRISAT 30 Jul 23:39:08 23:43:42 62° 100° (E) 23:48:08 435.000
Cosmos 2491 30 Jul 23:39:25 23:46:54 31° 291° (WNW) 23:54:28 435.465 / 435.565
SPROUT 30 Jul 23:45:15 23:47:49 16° 64° (ENE) 23:50:24 437.525
UNISAT 6 30 Jul 23:56:53 00:01:31 80° 284° (WNW) 00:06:00 437.425
CUBEBUG 1 31 Jul 00:08:07 00:12:24 68° 74° (ENE) 00:16:43 437.445
NANOSAT C BR1 31 Jul 00:14:55 00:18:18 22° 94° (E) 00:21:39 145.865
HUMSAT D 31 Jul 00:15:02 00:16:42 12° 270° (W) 00:18:23 437.325/437.525
DUCHIFAT 1 31 Jul 00:17:09 00:20:31 22° 94° (E) 00:23:51 145.980
VELOX 1 31 Jul 00:17:42 00:22:04 76° 76° (ENE) 00:26:29 145.980
ESTCUBE 1 31 Jul 00:18:37 00:23:03 61° 259° (W) 00:27:30 437.505/2401.250
ISS 31 Jul 00:26:00 00:27:48 14° 5° (N) 00:29:37 145.825
TISAT 1 31 Jul 00:27:28 00:28:19 11° 61° (ENE) 00:29:10 437.305
ANTELSAT 31 Jul 00:35:37 00:39:44 32° 291° (WNW) 00:43:43 437.575/2403.000
QB50P1 31 Jul 00:39:15 00:43:22 44° 99° (E) 00:47:27 145.935-145.965
JAS-2 31 Jul 00:39:31 00:43:02 17° 93° (E) 00:46:45 435.910
POPSAT HIP 1 31 Jul 00:46:03 00:50:15 52° 100° (E) 00:54:26 437.405
DX 1 31 Jul 00:48:06 00:52:24 68° 258° (WSW) 00:56:44 434.975-435.025
UKube-1 31 Jul 00:53:51 00:58:08 75° 257° (WSW) 01:02:27 .
50 SAT 31 Jul 00:57:45 01:00:59 29° 263° (W) 01:04:14 437.505
AIST 1 31 Jul 01:00:40 01:05:01 74° 265° (W) 01:09:23
AISAT 31 Jul 01:03:36 01:07:32 32° 263° (W) 01:11:31 437.250
QB50P2 31 Jul 01:08:02 01:12:21 81° 283° (WNW) 01:16:36 145.880/145.840
POLYITAN 1 31 Jul 01:10:40 01:14:59 79° 284° (WNW) 01:19:14 437.675
TIGRISAT 31 Jul 01:17:25 01:19:49 14° 298° (WNW) 01:22:13 435.000
SPROUT 31 Jul 01:19:14 01:23:22 48° 261° (W) 01:27:33 437.525
ITUPSAT 1 31 Jul 01:34:53 01:37:01 13° 60° (ENE) 01:39:10 437.325
CUBEBUG 1 31 Jul 01:48:25 01:49:08 10° 271° (W) 01:49:51 437.445
BUGSAT 1 31 Jul 01:49:09 01:53:25 76° 286° (WNW) 01:57:39 437.445
NANOSAT C BR1 31 Jul 01:50:16 01:54:02 31° 291° (WNW) 01:57:47 145.865
DUCHIFAT 1 31 Jul 01:52:27 01:56:14 31° 290° (WNW) 01:59:58 145.980
TISAT 1 31 Jul 01:59:09 02:03:20 74° 258° (WSW) 02:07:35 437.305
ISS 31 Jul 02:02:05 02:05:01 30° 25° (NNE) 02:07:56 145.825
Cosmos 2499 31 Jul 02:07:24 02:13:43 27° 67° (ENE) 02:19:40 435.465 / 435.565
QB50P1 31 Jul 02:16:02 02:18:46 17° 295° (WNW) 02:21:31 145.935-145.965
GONETS M04 31 Jul 02:22:01 02:30:32 50° 75° (ENE) 02:39:02
SWISSCUBE 31 Jul 02:22:54 02:27:23 42° 70° (ENE) 02:31:54 437.505
JAS-2 31 Jul 02:23:09 02:28:27 62° 287° (WNW) 02:34:18 435.910
POPSAT HIP 1 31 Jul 02:23:13 02:25:36 15° 296° (WNW) 02:27:58 437.405
BEESAT 3 31 Jul 02:23:52 02:27:24 30° 50° (NE) 02:30:55 437.485
PCSat 31 Jul 02:27:54 02:30:07 12° 37° (NE) 02:32:18 145.827
BEESAT 2 31 Jul 02:38:37 02:41:56 24° 47° (NE) 02:45:14 435.950
BEESAT 31 Jul 02:43:31 02:48:13 61° 73° (ENE) 02:52:57 436.000
CUSAT 1 31 Jul 03:00:07 03:01:10 11° 94° (E) 03:02:11 437.405
Oscar 19 31 Jul 03:01:19 03:06:31 88° 103° (ESE) 03:11:43 437.125/150
ITAMSAT 1 31 Jul 03:07:42 03:10:20 14° 90° (E) 03:12:56 435.822/435.867
ITUPSAT 1 31 Jul 03:09:25 03:14:13 76° 257° (WSW) 03:19:02 437.325
Gurwin Techsat 1B 31 Jul 03:16:06 03:21:20 54° 100° (E) 03:26:31 435.225
KKS-1 31 Jul 03:20:13 03:23:05 17° 64° (ENE) 03:25:58 437.445
ISS 31 Jul 03:38:27 03:41:29 37° 223° (SW) 03:44:30 145.825
STARS 31 Jul 03:47:17 03:50:03 16° 64° (ENE) 03:52:48 437.465
DANDE 31 Jul 03:59:46 04:04:03 27° 96° (E) 04:07:28 436.750
Cosmos 2499 31 Jul 03:59:52 04:07:22 57° 269° (W) 04:14:21 435.465 / 435.565
BEESAT 3 31 Jul 04:01:43 04:04:57 24° 247° (WSW) 04:08:10 437.485
SWISSCUBE 31 Jul 04:01:46 04:05:21 21° 266° (W) 04:08:55 437.505
PCSat 31 Jul 04:09:15 04:14:39 62° 58° (ENE) 04:20:00 145.827
BEESAT 2 31 Jul 04:16:13 04:19:48 32° 245° (WSW) 04:23:22 435.950
GONETS M04 31 Jul 04:19:18 04:27:03 36° 275° (W) 04:34:49
MOZHAYETS 4 31 Jul 04:23:42 04:28:19 82° 80° (E) 04:32:59
BEESAT 31 Jul 04:23:52 04:26:23 14° 269° (W) 04:28:56 436.000
CUSAT 1 31 Jul 04:39:53 04:43:02 27° 282° (WNW) 04:45:42 437.405
AO-7 31 Jul 04:40:09 04:48:06 46° 100° (E) 04:55:57 29.400- 29.500
Oscar 19 31 Jul 04:42:56 04:45:05 13° 301° (WNW) 04:47:14 437.125/150
ITAMSAT 1 31 Jul 04:45:07 04:50:18 70° 287° (WNW) 04:55:26 435.822/435.867
KKS-1 31 Jul 04:54:59 04:59:16 47° 260° (W) 05:03:35 437.445
Gurwin Techsat 1B 31 Jul 04:57:02 05:00:52 20° 297° (WNW) 05:04:40 435.225
RS-15 31 Jul 05:12:18 05:20:13 22° 99° (E) 05:28:21 29.354- 29.394
AIST 2 31 Jul 05:15:02 05:19:05 48° 53° (NE) 05:23:07 435.215
STARS 31 Jul 05:21:44 05:25:59 49° 260° (W) 05:30:18 437.465
DANDE 31 Jul 05:42:52 05:46:43 23° 283° (WNW) 05:49:51 436.750
PCSat 31 Jul 05:53:53 05:57:31 18° 255° (WSW) 06:01:07 145.827
CUBESAT XI-V 31 Jul 05:54:54 05:59:30 90° 104° (ESE) 06:04:08 437.345
O/OREOS (USA 219) 31 Jul 06:08:50 06:13:19 55° 65° (ENE) 06:17:47 437.305
HORYU 2 31 Jul 06:09:41 06:14:02 49° 100° (E) 06:18:20 437.375
NOAA 18 31 Jul 06:30:26 06:33:16 14° 90° (E) 06:36:04 137.9125
SO-50 31 Jul 06:32:46 06:35:00 13° 108° (ESE) 06:37:14 436.795
AO-7 31 Jul 06:33:05 06:40:45 42° 299° (WNW) 06:48:23 29.400- 29.500
Cubesat XI-IV 31 Jul 06:34:37 06:37:46 16° 91° (E) 06:40:53 437.490
BRITE-PL 31 Jul 06:46:42 06:51:22 38° 98° (E) 06:56:21 437.365/2234.400
AIST 2 31 Jul 06:54:35 06:57:11 16° 250° (WSW) 06:59:49 435.215
CUTE-I 31 Jul 06:55:53 07:00:15 25° 94° (E) 07:04:36 437.470
DOVE 4 31 Jul 06:59:41 07:01:24 11° 88° (E) 07:03:07 437.250
NOAA 15 31 Jul 07:01:07 07:05:59 37° 98° (E) 07:10:51 137.62
LilacSat-2 31 Jul 07:05:51 07:09:10 27° 96° (E) 07:12:27 437.200
RS-15 31 Jul 07:19:18 07:30:47 87° 120° (ESE) 07:42:58 29.354- 29.394
GOMX 1 31 Jul 07:26:14 07:31:13 45° 98° (E) 07:36:23 467.674
STRAND 1 31 Jul 07:33:00 07:38:03 60° 72° (ENE) 07:43:06 437.568
HORYU 2 31 Jul 07:47:22 07:50:11 17° 297° (WNW) 07:52:59 437.375
O/OREOS (USA 219) 31 Jul 07:49:49 07:52:13 14° 261° (W) 07:54:36 437.305
Cosmos 2491 31 Jul 07:51:48 07:59:07 28° 68° (ENE) 08:06:24 435.465 / 435.565
NOAA 18 31 Jul 08:08:57 08:14:30 76° 287° (WNW) 08:20:00 137.9125
SO-50 31 Jul 08:09:59 08:14:52 77° 304° (WNW) 08:19:44 436.795
Cubesat XI-IV 31 Jul 08:12:59 08:18:18 65° 287° (WNW) 08:23:33 437.490
CINEMA 3 31 Jul 08:14:37 08:18:07 19° 91° (E) 08:21:33 145.822/145.860
CANX-2 31 Jul 08:16:59 08:19:15 14° 91° (E) 08:21:30 2200.000
BRITE-PL 31 Jul 08:25:35 08:29:40 26° 292° (WNW) 08:34:00 437.365/2234.400
PRISM 31 Jul 08:27:24 08:30:43 24° 68° (ENE) 08:34:02 437.425
CUTE 1.7 + AOD 2 31 Jul 08:29:05 08:31:51 17° 92° (E) 08:34:36 437.475
DOVE 4 31 Jul 08:34:24 08:39:39 87° 283° (WNW) 08:44:58 437.250
CUTE-I 31 Jul 08:35:26 08:40:25 41° 291° (WNW) 08:45:22 437.470
LilacSat-2 31 Jul 08:40:24 08:43:19 21° 292° (WNW) 08:46:13 437.200
NOAA 15 31 Jul 08:41:10 08:45:36 28° 294° (WNW) 08:50:03 137.62
CUBEBUG 2 31 Jul 08:52:45 08:54:37 12° 88° (E) 08:56:28 437.445
SEEDS 31 Jul 08:59:19 09:02:49 26° 95° (E) 09:06:17 437.485
COMPASS 1 31 Jul 09:02:56 09:05:58 20° 93° (E) 09:08:59 437.405
GOMX 1 31 Jul 09:04:54 09:09:01 24° 293° (WNW) 09:13:17 467.674
HO-68 31 Jul 09:06:33 09:13:32 50° 100° (E) 09:20:26 435.675
STRAND 1 31 Jul 09:14:25 09:17:36 16° 269° (W) 09:20:47 437.568
YUBILEINY 31 Jul 09:18:18 09:26:14 40° 86° (E) 09:34:12 435.215
UNISAT 6 31 Jul 09:23:05 09:23:45 10° 59° (ENE) 09:24:25 437.425
AAUSAT CUBESAT 2 31 Jul 09:26:16 09:29:51 28° 96° (E) 09:33:23 437.432
RS-15 31 Jul 09:34:30 09:44:56 35° 327° (NNW) 09:55:52 29.354- 29.394
FUNcube-1 31 Jul 09:43:05 09:45:56 17° 91° (E) 09:48:43 145.935
ZACube-1 31 Jul 09:46:19 09:49:32 19° 92° (E) 09:52:41 437.345
Cosmos 2491 31 Jul 09:47:56 09:56:33 64° 268° (W) 10:05:11 435.465 / 435.565
CINEMA 3 31 Jul 09:50:39 09:55:30 50° 288° (WNW) 10:00:16 145.822/145.860
CANX-2 31 Jul 09:51:19 09:55:22 47° 287° (WNW) 09:59:23 2200.000
NOAA 18 31 Jul 09:52:33 09:54:12 11° 305° (NW) 09:55:50 137.9125
SO-50 31 Jul 09:53:33 09:56:09 14° 323° (NW) 09:58:44 436.795
UWE-3 31 Jul 09:55:25 09:59:41 38° 97° (E) 10:03:48 435.000/436.395/437.385
ANTELSAT 31 Jul 09:57:57 10:01:38 23° 66° (ENE) 10:05:20 437.575/2403.000
PRISM 31 Jul 10:02:31 10:05:56 26° 264° (W) 10:09:22 437.425
CUTE 1.7 + AOD 2 31 Jul 10:03:55 10:07:52 39° 288° (WNW) 10:11:45 437.475
Cosmos 2504 31 Jul 10:05:15 10:12:20 28° 82° (E) 10:19:21 435.465 / 435.565
DOVE 4 31 Jul 10:14:33 10:16:33 12° 300° (WNW) 10:18:34 437.250
Oscar 11 31 Jul 10:18:10 10:22:17 43° 99° (E) 10:26:23 145.826/435.025
M-CUBED/EXP-1 PRIME 31 Jul 10:25:29 10:27:13 12° 94° (E) 10:28:56 437.505
CUBEBUG 2 31 Jul 10:27:04 10:31:43 66° 285° (WNW) 10:36:12 437.445
SEEDS 31 Jul 10:35:00 10:38:27 25° 291° (WNW) 10:41:52 437.485
TIGRISAT 31 Jul 10:37:12 10:41:44 54° 73° (ENE) 10:46:20 435.000
COMPASS 1 31 Jul 10:37:53 10:41:36 33° 289° (WNW) 10:45:17 437.405
DELFI C3 31 Jul 10:45:23 10:49:02 36° 98° (E) 10:52:40 145.870
AUBIESAT-1 31 Jul 10:46:31 10:49:27 16° 96° (E) 10:52:19 437.475
HO-68 31 Jul 10:54:43 11:00:58 33° 298° (WNW) 11:07:10 435.675
UNISAT 6 31 Jul 10:55:00 10:59:40 88° 78° (ENE) 11:04:25 437.425
AAUSAT CUBESAT 2 31 Jul 11:01:56 11:05:11 23° 292° (WNW) 11:08:26 437.432
NANOSAT C BR1 31 Jul 11:07:35 11:10:26 18° 65° (ENE) 11:13:18 145.865
DUCHIFAT 1 31 Jul 11:09:36 11:12:24 17° 65° (ENE) 11:15:14 145.980
YUBILEINY 31 Jul 11:14:32 11:22:52 46° 286° (WNW) 11:31:18 435.215
FUNcube-1 31 Jul 11:18:11 11:22:24 44° 288° (WNW) 11:26:31 145.935
ZACube-1 31 Jul 11:21:50 11:25:58 38° 289° (WNW) 11:29:59 437.345
QB50P1 31 Jul 11:31:38 11:35:26 33° 70° (ENE) 11:39:18 145.935-145.965
UWE-3 31 Jul 11:32:26 11:35:51 21° 294° (WNW) 11:39:13 435.000/436.395/437.385
ANTELSAT 31 Jul 11:33:47 11:38:06 37° 263° (W) 11:42:28 437.575/2403.000
POPSAT HIP 1 31 Jul 11:38:23 11:42:20 38° 71° (ENE) 11:46:20 437.405
Cosmos 2491 31 Jul 11:50:00 11:51:30 11° 288° (WNW) 11:53:02 435.465 / 435.565
RS-15 31 Jul 11:53:35 12:02:36 23° 2° (N) 12:11:47 29.354- 29.394
Oscar 11 31 Jul 11:55:16 11:58:05 17° 295° (WNW) 12:00:53 145.826/435.025
HUMSAT D 31 Jul 11:55:25 11:59:35 72° 285° (WNW) 12:03:40 437.325/437.525
Cosmos 2504 31 Jul 11:56:12 12:05:02 66° 281° (W) 12:13:46 435.465 / 435.565
M-CUBED/EXP-1 PRIME 31 Jul 11:57:27 12:02:11 76° 290° (WNW) 12:06:49 437.505
CUBEBUG 1 31 Jul 11:58:26 12:00:23 13° 91° (E) 12:02:19 437.445
QB50P2 31 Jul 12:00:13 12:04:27 75° 76° (ENE) 12:08:45 145.880/145.840
POLYITAN 1 31 Jul 12:02:49 12:07:05 76° 76° (ENE) 12:11:24 437.675
AO-85 31 Jul 12:07:35 12:10:14 14° 107° (ESE) 12:12:49 145.980
VELOX 1 31 Jul 12:09:13 12:11:37 14° 91° (E) 12:14:01 145.980
ESTCUBE 1 31 Jul 12:11:22 12:15:11 27° 96° (E) 12:18:59 437.505/2401.250
TIGRISAT 31 Jul 12:15:59 12:18:44 15° 269° (W) 12:21:31 435.000
AUBIESAT-1 31 Jul 12:19:37 12:24:10 54° 292° (WNW) 12:28:37 437.475
DELFI C3 31 Jul 12:21:01 12:23:36 17° 294° (WNW) 12:26:11 145.870
50 SAT 31 Jul 12:26:28 12:29:09 20° 95° (E) 12:31:49 437.505
JAS-2 31 Jul 12:35:33 12:41:13 54° 72° (ENE) 12:46:25 435.910
DX 1 31 Jul 12:36:55 12:40:10 20° 94° (E) 12:43:25 434.975-435.025
BUGSAT 1 31 Jul 12:38:29 12:42:34 73° 76° (ENE) 12:46:44 437.445
Oscar 19 31 Jul 12:41:24 12:44:32 17° 61° (ENE) 12:47:41 437.125/150
UKube-1 31 Jul 12:41:50 12:44:48 18° 93° (E) 12:47:44 .
NANOSAT C BR1 31 Jul 12:41:51 12:45:50 41° 262° (W) 12:49:54 145.865
DUCHIFAT 1 31 Jul 12:43:45 12:47:46 42° 261° (W) 12:51:49 145.980
AISAT 31 Jul 12:53:06 12:57:24 45° 99° (E) 13:01:41 437.250
Gurwin Techsat 1B 31 Jul 13:01:24 13:03:21 12° 58° (ENE) 13:05:17 435.225
SPROUT 31 Jul 13:05:18 13:09:01 27° 96° (E) 13:12:42 437.525
QB50P1 31 Jul 13:08:04 13:11:17 21° 266° (W) 13:14:32 145.935-145.965
POPSAT HIP 1 31 Jul 13:15:20 13:18:16 18° 267° (W) 13:21:13 437.405
AIST 1 31 Jul 13:29:43 13:33:54 64° 94° (E) 13:38:08
CUBEBUG 1 31 Jul 13:32:41 13:37:01 59° 286° (WNW) 13:41:22 437.445
M-CUBED/EXP-1 PRIME 31 Jul 13:35:13 13:35:51 10° 306° (NW) 13:36:31 437.505
VELOX 1 31 Jul 13:44:03 13:48:23 53° 287° (WNW) 13:52:43 145.980
TISAT 1 31 Jul 13:44:03 13:46:51 17° 93° (E) 13:49:37 437.305
AO-85 31 Jul 13:44:44 13:50:08 84° 304° (WNW) 13:55:17 145.980
ESTCUBE 1 31 Jul 13:48:05 13:51:56 29° 292° (WNW) 13:55:46 437.505/2401.250
AO-7 31 Jul 13:51:43 13:55:52 15° 45° (NE) 14:00:00 29.400- 29.500
Cosmos 2504 31 Jul 13:56:04 14:00:12 14° 302° (WNW) 14:04:19 435.465 / 435.565
50 SAT 31 Jul 13:59:47 14:02:45 24° 290° (WNW) 14:05:41 437.505
RS-15 31 Jul 14:08:45 14:20:02 39° 36° (NE) 14:31:16 29.354- 29.394
DX 1 31 Jul 14:12:26 14:16:28 36° 290° (WNW) 14:20:28 434.975-435.025
UKube-1 31 Jul 14:16:56 14:21:00 40° 289° (WNW) 14:25:03 .
Oscar 19 31 Jul 14:18:15 14:23:19 65° 258° (WSW) 14:28:26 437.125/150
JAS-2 31 Jul 14:22:32 14:26:34 19° 266° (W) 14:30:24 435.910
ITAMSAT 1 31 Jul 14:25:06 14:29:09 23° 64° (ENE) 14:33:12 435.822/435.867
AISAT 31 Jul 14:30:30 14:33:32 18° 295° (WNW) 14:36:33 437.250
Gurwin Techsat 1B 31 Jul 14:37:08 14:42:27 85° 76° (ENE) 14:47:49 435.225
SPROUT 31 Jul 14:41:17 14:44:52 26° 292° (WNW) 14:48:26 437.525
Cosmos 2499 31 Jul 14:43:50 14:50:26 24° 81° (E) 14:56:51 435.465 / 435.565
BEESAT 31 Jul 14:44:59 14:47:45 15° 91° (E) 14:50:29 436.000
SO-50 31 Jul 15:02:24 15:05:11 15° 38° (NE) 15:07:54 436.795
CUSAT 1 31 Jul 15:09:59 15:13:14 61° 262° (W) 15:17:28 437.405
ITUPSAT 1 31 Jul 15:10:20 15:14:22 27° 96° (E) 15:18:24 437.325
AIST 1 31 Jul 15:10:57 15:11:58 11° 293° (WNW) 15:13:00
TISAT 1 31 Jul 15:18:39 15:22:40 41° 288° (WNW) 15:26:39 437.305
GONETS M04 31 Jul 15:22:51 15:31:15 57° 90° (E) 15:39:43
AO-85 31 Jul 15:28:04 15:31:19 16° 321° (NW) 15:34:28 145.980
AO-7 31 Jul 15:38:47 15:46:59 62° 66° (ENE) 15:55:12 29.400- 29.500
PHONESAT 2.4 31 Jul 15:48:20 15:51:01 28° 157° (SSE) 15:53:43 2401.200-2431.200
SWISSCUBE 31 Jul 16:00:18 16:05:05 82° 284° (WNW) 16:09:49 437.505
ITAMSAT 1 31 Jul 16:03:19 16:08:18 45° 260° (W) 16:13:20 435.822/435.867
DANDE 31 Jul 16:19:23 16:21:39 22° 264° (W) 16:24:13 436.750
MOZHAYETS 4 31 Jul 16:19:39 16:22:53 19° 93° (E) 16:26:06
BEESAT 31 Jul 16:21:13 16:25:53 56° 288° (WNW) 16:30:31 436.000
Gurwin Techsat 1B 31 Jul 16:21:23 16:23:04 11° 272° (W) 16:24:44 435.225
RS-15 31 Jul 16:21:30 16:33:52 80° 242° (WSW) 16:46:02 29.354- 29.394
Cosmos 2499 31 Jul 16:33:52 16:42:44 74° 279° (W) 16:51:20 435.465 / 435.565
SO-50 31 Jul 16:41:40 16:46:19 86° 238° (WSW) 16:50:48 436.795
KKS-1 31 Jul 16:45:54 16:49:55 31° 97° (E) 16:53:54 437.445
ITUPSAT 1 31 Jul 16:47:59 16:52:12 32° 292° (WNW) 16:56:22 437.325
HORYU 2 31 Jul 17:07:26 17:11:44 46° 71° (ENE) 17:16:03 437.375
STARS 31 Jul 17:11:13 17:15:06 29° 96° (E) 17:18:56 437.465
GONETS M04 31 Jul 17:21:00 17:28:29 32° 291° (WNW) 17:36:06
PHONESAT 2.4 31 Jul 17:24:14 17:27:17 72° 174° (S) 17:30:21 2401.200-2431.200
AO-7 31 Jul 17:33:07 17:40:10 30° 264° (W) 17:47:17 29.400- 29.500
LilacSat-2 31 Jul 17:48:50 17:51:05 15° 66° (ENE) 17:53:20 437.200
BEESAT 3 31 Jul 17:51:23 17:55:10 50° 118° (ESE) 17:59:00 437.485
CUBESAT XI-V 31 Jul 17:52:00 17:55:36 22° 94° (E) 17:59:11 437.345
NOAA 18 31 Jul 17:55:51 18:00:31 29° 65° (ENE) 18:05:13 137.9125
MOZHAYETS 4 31 Jul 17:55:56 18:00:13 41° 289° (WNW) 18:04:28
Cubesat XI-IV 31 Jul 17:56:06 18:00:34 27° 65° (ENE) 18:05:03 437.490
BRITE-PL 31 Jul 17:58:32 18:02:20 36° 71° (ENE) 18:06:15 437.365/2234.400
